Home > Weather > Anaheim > Past weeks

Flag for USA Past Weather in Anaheim, California, USA — Yesterday and Last 2 Weeks

Now
60 °F

Clear.


Feels Like: 60 °F
Forecast: 58 / 76 °F
Wind: 3 mph from South

Location: Fullerton Municipal Airport

Current Time: May 27, 2016 at 3:37:17 AM

Latest Report: May 27, 2016 at 2:53 AM


Visibility: 10 mi

Pressure: 29.95 "Hg

Humidity: 83%

Dew Point: 55 °F

Location of AnaheimLocation

Past Weather in Anaheim — Graph

°F

Anaheim Temperature Yesterday

Maximum temperature yesterday: 73 °F (at 1:53 PM)
Minimum temperature yesterday: 57 °F (at 4:53 AM)
Average temperature yesterday: 65 °F

High & Low Weather Summary for the Past Weeks

 TemperatureHumidityPressure
High78 °F (May 12, 2:53 PM)90% (May 12, 10:53 PM)30.08 "Hg (May 12, 10:53 PM)
Low54 °F (May 21, 5:53 AM)33% (May 22, 4:53 PM)29.81 "Hg (May 19, 5:53 PM)
Average65 °F65%29.95 "Hg
* Reported May 12 1:53 AM — May 27 1:53 AM, Anaheim, Weather by CustomWeather, © 2016

Note: Actual official high and low records may vary slightly from our data, if they occured in-between our weather recording intervals... More about our weather records

Advertising

Anaheim Weather History for the Previous 24 Hours

Scroll right to see more
 ConditionsComfort  
Time TempWeatherWind HumidityBarometerVisibility
1:53 AM
Fri, May 27
61 °FClear.3 mph81%29.96 "Hg10 mi
12:53 AM61 °FClear.No wind81%29.97 "Hg10 mi
11:53 PM
Thu, May 26
62 °FClear.3 mph78%29.97 "Hg10 mi
10:53 PM63 °FClear.3 mph75%29.97 "Hg10 mi
9:53 PM65 °FClear.No wind61%29.97 "Hg10 mi
8:53 PM65 °FSunny.No wind61%29.95 "Hg10 mi
7:53 PM67 °FSunny.3 mph59%29.95 "Hg10 mi
6:53 PM69 °FSunny.7 mph57%29.95 "Hg10 mi
5:53 PM72 °FSunny.5 mph53%29.95 "Hg10 mi
4:53 PM72 °FSunny.8 mph48%29.96 "Hg10 mi
3:53 PM73 °FSunny.10 mph48%29.97 "Hg10 mi
2:53 PM72 °FScattered clouds.9 mph49%29.99 "Hg10 mi
1:53 PM73 °FScattered clouds.5 mph50%30.01 "Hg10 mi
12:53 PM70 °FPartly sunny.8 mph53%30.03 "Hg10 mi
11:53 AM70 °FOvercast.7 mph53%30.04 "Hg10 mi
10:53 AM69 °FPartly sunny.6 mph51%30.04 "Hg10 mi
9:53 AM68 °FPartly sunny.3 mph53%30.05 "Hg10 mi
8:53 AM64 °FPartly sunny.No wind61%30.06 "Hg10 mi
7:53 AM62 °FOvercast.6 mph62%30.06 "Hg10 mi
6:53 AM60 °FOvercast.6 mph72%30.06 "Hg10 mi
5:53 AM59 °FOvercast.No wind75%30.05 "Hg10 mi
4:53 AM57 °FPassing clouds.5 mph81%30.03 "Hg10 mi
3:53 AM58 °FClear.5 mph81%30.04 "Hg10 mi
Weather by CustomWeather, © 2016

See weather overviewHow to use our weather pages